Milan, NH

12:47 AM EDT on August 26, 2016 (GMT -0400)
Berlin Municipal

Weather History for KBML - November, 2012

Change the Weather History Date:

Saturday, November 17, 2012

  Actual Average Record
Temperature  
Mean Temperature 32 °F -  
Max Temperature 44 °F 38 °F 64 °F (2006)
Min Temperature 18 °F 21 °F 8 °F (2003)
Degree Days  
Heating Degree Days 34    
Moisture  
Dew Point 21 °F    
Average Humidity 74    
Maximum Humidity 93    
Minimum Humidity 34    
Precipitation  
Precipitation 0.00 in - - ()
Sea Level Pressure  
Sea Level Pressure 30.59 in    
Wind  
Wind Speed 1 mph (NNW)    
Max Wind Speed 6 mph    
Max Gust Speed -    
Visibility 9 miles    
Events      
Averages and records for this station are not official NWS values.
T = Trace of Precipitation, MM = Missing Value Source: NWS Daily Summary

Daily Weather History Graph

Daily Weather History Graph

Search for Another Location

Airport or City:

Trip Planner

Search our weather history database for the weather conditions in past years. The results will help you decide how hot, cold, wet, or windy it might be!

Date:

Astronomy

Nov. 17, 2012 Rise Set
Actual Time 6:44 AM EST 4:14 PM EST
Civil Twilight 6:12 AM EST 4:46 PM EST
Nautical Twilight 5:37 AM EST 5:21 PM EST
Astronomical Twilight 5:02 AM EST 5:56 PM EST
Moon 10:27 AM EST (11/17) 8:21 PM EST (11/17)
Length of Visible Light 10h 33m
Length of Day
9h 30m
Waxing Crescent, 20% of the Moon is Illuminated
Nov 17
Waxing Crescent
Nov 20
First Quarter
Nov 28
Full
Dec 6
Last Quarter
Dec 13
New

Hourly Weather History & Observations

Time (EST) Temp. Windchill Dew Point Humidity Pressure Visibility Wind Dir Wind Speed Gust Speed Precip Events Conditions
12:29 AM 30.2 °F - 26.6 °F 86% 30.43 in 10.0 mi Calm Calm - N/A   Overcast
12:52 AM 30.0 °F - 26.1 °F 85% 30.47 in 10.0 mi Calm Calm - N/A   Overcast
1:52 AM 28.9 °F 25.2 °F 25.0 °F 85% 30.49 in 10.0 mi SE 3.5 mph - N/A   Overcast
2:34 AM 28.4 °F - 24.8 °F 86% 30.45 in 10.0 mi Calm Calm - N/A   Mostly Cloudy
2:52 AM 28.9 °F - 26.1 °F 89% 30.50 in 10.0 mi Calm Calm - N/A   Overcast
3:52 AM 27.0 °F - 24.1 °F 89% 30.52 in 9.0 mi Calm Calm - N/A   Mostly Cloudy
4:52 AM 28.9 °F - 26.1 °F 89% 30.55 in 10.0 mi Calm Calm - N/A   Overcast
5:37 AM 24.8 °F - 23.0 °F 93% 30.51 in 8.0 mi Calm Calm - N/A   Scattered Clouds
5:52 AM 26.1 °F - 24.1 °F 92% 30.57 in 9.0 mi Calm Calm - N/A   Partly Cloudy
6:43 AM 24.8 °F - 21.2 °F 86% 30.53 in 6.0 mi Calm Calm - N/A   Mostly Cloudy
6:52 AM 26.1 °F - 23.0 °F 88% 30.59 in 6.0 mi Calm Calm - N/A   Mostly Cloudy
7:36 AM 24.8 °F - 21.2 °F 86% 30.56 in 5.0 mi Calm Calm - N/A   Scattered Clouds
7:52 AM 25.0 °F - 23.0 °F 92% 30.62 in 5.0 mi Calm Calm - N/A   Clear
8:52 AM 34.0 °F - 26.1 °F 73% 30.63 in 10.0 mi Calm Calm - N/A   Clear
9:52 AM 37.0 °F 34.5 °F 21.9 °F 54% 30.64 in 10.0 mi NNW 3.5 mph - N/A   Clear
10:52 AM 39.0 °F 35.7 °F 21.9 °F 50% 30.63 in 10.0 mi NNW 4.6 mph - N/A   Clear
11:52 AM 39.9 °F 35.8 °F 19.9 °F 45% 30.61 in 10.0 mi Variable 5.8 mph - N/A   Clear
12:52 PM 42.1 °F 39.2 °F 19.0 °F 40% 30.60 in 10.0 mi Variable 4.6 mph - N/A   Clear
1:52 PM 44.1 °F 42.5 °F 19.0 °F 37% 30.60 in 10.0 mi Variable 3.5 mph - N/A   Clear
2:52 PM 43.0 °F - 16.0 °F 34% 30.60 in 10.0 mi Calm Calm - N/A   Clear
3:52 PM 39.9 °F - 17.1 °F 40% 30.61 in 10.0 mi Calm Calm - N/A   Clear
4:52 PM 32.0 °F 27.5 °F 18.0 °F 56% 30.64 in 10.0 mi North 4.6 mph - N/A   Clear
5:52 PM 28.0 °F 22.8 °F 15.1 °F 58% 30.67 in 10.0 mi North 4.6 mph - N/A   Clear
6:52 PM 25.0 °F - 18.0 °F 75% 30.69 in 10.0 mi Calm Calm - N/A   Clear
7:52 PM 23.0 °F - 17.1 °F 78% 30.70 in 10.0 mi Calm Calm - N/A   Clear
8:52 PM 21.9 °F - 17.1 °F 82% 30.70 in 10.0 mi Calm Calm - N/A   Clear
9:52 PM 19.9 °F - 17.1 °F 89% 30.69 in 10.0 mi Calm Calm - N/A   Clear
10:52 PM 19.0 °F 13.9 °F 16.0 °F 88% 30.70 in 10.0 mi South 3.5 mph - N/A   Clear
11:52 PM 18.0 °F - 15.1 °F 88% 30.72 in 10.0 mi Calm Calm - N/A   Clear